This is the latest recevied weather packets stored in our database for station/object OE-11213. If no packets are shown the sender has not sent any weather packets the latest 10 day(s).
| Time | Temp. | Humidity | Pressure | Rain* | Wind** | Luminosity | Snow |
|---|---|---|---|---|---|---|---|
| 1788069330 | 16.67° C | 91% | 1018.1 hPa | 0 mm | - | 145 W/m² | - |
| 1788068503 | 16.67° C | 92% | 1018.1 hPa | 0 mm | - | 116 W/m² | - |
| 1788068130 | 16.67° C | 94% | 1018.1 hPa | 0 mm | - | 87 W/m² | - |
| 1788067530 | 16.11° C | 94% | 1018 hPa | 0 mm | - | 58 W/m² | - |
| 1788066703 | 16.11° C | 95% | 1018.1 hPa | 0 mm | - | 44 W/m² | - |
| 1788066329 | 16.11° C | 95% | 1018.1 hPa | 0 mm | - | 22 W/m² | - |
| 1788065729 | 16.11° C | 95% | 1018 hPa | 0 mm | - | 15 W/m² | - |
| 1788064902 | 16.11° C | 95% | 1018 hPa | 0 mm | - | 7 W/m² | - |
| 1788064529 | 16.11° C | 96% | 1018 hPa | 0 mm | - | 0 W/m² | - |
| 1788063929 | 16.11° C | 95% | 1018 hPa | 0 mm | - | 0 W/m² | - |
| 1788063102 | 16.11° C | 96% | 1018 hPa | 0 mm | - | 0 W/m² | - |
| 1788062729 | 16.11° C | 95% | 1017.8 hPa | 0 mm | - | 0 W/m² | - |
| 1788062129 | 16.11° C | 95% | 1017.8 hPa | 0 mm | - | 0 W/m² | - |
| 1788061530 | 16.67° C | 94% | 1017.7 hPa | 0 mm | - | 0 W/m² | - |
| 1788060929 | 16.67° C | 93% | 1017.7 hPa | 0 mm | - | 0 W/m² | - |
| 1788060329 | 16.67° C | 94% | 1017.7 hPa | 0 mm | - | 0 W/m² | - |
| 1788059503 | 16.67° C | 92% | 1017.8 hPa | 0 mm | - | 0 W/m² | - |
| 1788059130 | 16.67° C | 92% | 1017.8 hPa | 0 mm | - | 0 W/m² | - |
| 1788058530 | 16.67° C | 94% | 1018 hPa | 0 mm | - | 0 W/m² | - |
| 1788057703 | 16.67° C | 94% | 1018 hPa | 0 mm | - | 0 W/m² | - |
| 1788057330 | 16.67° C | 94% | 1018 hPa | 0 mm | - | 0 W/m² | - |
| 1788056730 | 16.67° C | 94% | 1018.1 hPa | 0 mm | - | 0 W/m² | - |
| 1788055903 | 16.67° C | 95% | 1018.2 hPa | 0 mm | - | 0 W/m² | - |
| 1788055530 | 16.67° C | 94% | 1018.3 hPa | 0 mm | - | 0 W/m² | - |
| 1788054929 | 16.67° C | 94% | 1018.2 hPa | 0 mm | - | 0 W/m² | - |
* Rain latest hour (hover to see other rain measurements)
** Current wind speed in m/s (hover to see current wind gust speed)